Content
SEND FEEDBACK

Daily
Averages
Monthly
Summary
United States of America

COLUMBIA, VIRGINIA


Home > North America > United States > Virginia
Elevation: 293 feet     Latitude: 37 42N     Longitude: 078 18W

WEATHER
 
SELECT A DAY
Number of Records: 79,320;   Date Range: 2/1/11 - 9/15/14
 
SHARE

PRINT THIS DATA

[ ← Previous Day ]
WEATHER ALMANAC - JANUARY 11, 2014
[ Next Day → ]
[ °C ]   °F
Weather ElementAverageHighLow
Temperature48.3 °F57.2 °F (12:35 pm)39.2 °F (12:35 am)
Dewpoint46.7 °F55.4 °F (12:35 pm)37.4 °F (12:35 am)
Humidity94.6 %100 % (2:15 am)76 % (11:55 pm)
Barometer29.73 in30.08 in (12:35 am)29.52 in (4:35 pm)
Wind Speed4 mph12.7 mph (11:15 am)
Wind Gust17.3 mph (5:35 pm)
Weather ElementAverage
Visibility6 mi
Wind DirectionESE (120.6 °)

Weather ElementTotal
Precipitation1.60 in
Heating Degree Days16.8 (Base 65)
Averaged from 71 records on January 11, 2014
WEATHER CONDITIONS BREAKOUT
WIND DIRECTION BREAKOUT
WEATHER BY HOUR - JANUARY 11, 2014
[ °C ]   °F
Local TimeTemperatureDewpointHumidityBarometerVisibilityWind DirectionWind SpeedGust SpeedPrecipitationEventsConditions
12:35 AM39.2 °F37.4 °F93 %30.08 in3.0 miCalm0.02 inLight Drizzle
12:55 AM39.2 °F37.4 °F93 %30.07 in1.8 miCalmOvercast
1:15 AM39.2 °F37.4 °F93 %30.05 in2.0 miCalmOvercast
1:35 AM39.2 °F37.4 °F93 %30.04 in1.5 miCalmOvercast
1:55 AM39.2 °F37.4 °F93 %30.04 in1.0 miCalmOvercast
2:15 AM39.2 °F39.2 °F100 %30.03 in0.8 miCalm0.01 inOvercast
2:35 AM39.2 °F37.4 °F93 %30.02 in0.5 miCalm0.01 inFogFog
2:55 AM39.2 °F37.4 °F93 %30.01 in1.0 miCalmOvercast
3:15 AM39.2 °F39.2 °F100 %29.98 in0.8 miESE (110°)3.5 mph0.03 inRainRain
3:35 AM39.2 °F39.2 °F100 %29.98 in1.8 miCalm0.06 inRainLight Rain
3:55 AM39.2 °F37.4 °F93 %29.97 in2.5 miCalmLight Drizzle
4:15 AM39.2 °F37.4 °F93 %29.95 in2.0 miCalmOvercast
4:35 AM39.2 °F39.2 °F100 %29.94 in1.2 miCalm0.04 inRainRain
4:55 AM39.2 °F39.2 °F100 %29.92 in2.0 miCalmOvercast
5:15 AM39.2 °F37.4 °F93 %29.91 in1.8 miCalmOvercast
5:35 AM39.2 °F37.4 °F93 %29.90 in1.8 miCalmOvercast
5:55 AM39.2 °F37.4 °F93 %29.89 in1.8 miCalmOvercast
6:15 AM39.2 °F37.4 °F93 %29.89 in1.2 miCalm0.01 inOvercast
6:35 AM39.2 °F39.2 °F100 %29.88 in1.2 miCalm0.01 inRainLight Rain
6:55 AM39.2 °F39.2 °F100 %29.87 in1.2 miCalmRainLight Rain
7:15 AM39.2 °F39.2 °F100 %29.86 in0.8 miCalm0.01 inDrizzle
7:35 AM39.2 °F39.2 °F100 %29.84 in1.0 miCalm0.01 inLight Drizzle
7:55 AM39.2 °F39.2 °F100 %29.83 in0.2 miCalmFogFog
8:15 AM39.2 °F39.2 °F100 %29.82 in0.5 miCalmFogFog
8:35 AM39.2 °F39.2 °F100 %29.80 in0.5 miCalmFog-Thunderstorm
8:55 AM39.2 °F39.2 °F100 %29.81 in0.2 miWSW (240°)3.5 mphFog-Thunderstorm
9:15 AM42.8 °F41.0 °F93 %29.81 in1.5 miCalm0.08 inRainHeavy Rain
9:35 AM42.8 °F42.8 °F100 %29.82 in1.0 miCalm0.28 inThunderstormThunderstorm
9:55 AM42.8 °F42.8 °F100 %29.79 in3.0 miCalm0.02 inRain-ThunderstormLight Thunderstorms and Rain
10:15 AM44.6 °F44.6 °F100 %29.75 in4.0 miCalm0.04 inRain-ThunderstormLight Thunderstorms and Rain
10:35 AM46.4 °F46.4 °F100 %29.75 in7.0 miCalm0.04 inOvercast
10:55 AM48.2 °F46.4 °F93 %29.72 in4.0 miCalmOvercast
11:15 AM51.8 °F50.0 °F94 %29.71 in5.0 miSouth (180°)12.7 mphRainLight Rain
11:35 AM53.6 °F53.6 °F100 %29.68 in7.0 miSouth (170°)9.2 mph0.01 inDrizzle
11:55 AM55.4 °F53.6 °F94 %29.65 in10.0 miSouth (180°)5.8 mphRainLight Rain
12:15 PM55.4 °F53.6 °F94 %29.64 in10.0 miSSW (200°)3.5 mph0.02 inRainLight Rain
12:35 PM57.2 °F55.4 °F94 %29.66 in7.0 miWest (270°)8.1 mph0.04 inRainRain
12:55 PM55.4 °F53.6 °F94 %29.65 in10.0 miWSW (240°)6.9 mph0.01 inRainLight Rain
1:15 PM55.4 °F53.6 °F94 %29.63 in5.0 miSW (230°)8.1 mph0.11 inRainRain
1:35 PM55.4 °F55.4 °F100 %29.61 in10.0 miSW (230°)5.8 mph0.18 inRainRain
1:55 PM55.4 °F55.4 °F100 %29.60 in10.0 miSW (230°)3.5 mph0.04 inRainRain
2:15 PM55.4 °F53.6 °F94 %29.62 in10.0 miSSW (200°)5.8 mph0.13 inRainHeavy Rain
2:35 PM55.4 °F53.6 °F94 %29.60 in7.0 miCalm0.21 inRainRain
2:55 PM55.4 °F53.6 °F94 %29.62 in10.0 miSouth (190°)5.8 mph0.03 inRainRain
3:15 PM55.4 °F53.6 °F94 %29.61 in10.0 miSouth (190°)5.8 mph0.06 inRainLight Rain
3:35 PM55.4 °F53.6 °F94 %29.58 in10.0 miSSE (160°)5.8 mph0.07 inRainLight Rain
3:55 PM55.4 °F53.6 °F94 %29.60 in10.0 miSSW (210°)8.1 mphLight Drizzle
4:15 PM55.4 °F55.4 °F100 %29.59 in10.0 miSSW (200°)9.2 mph0.01 inRainLight Rain
4:35 PM55.4 °F53.6 °F94 %29.52 in10.0 miSSE (160°)6.9 mph0.01 inLight Drizzle
4:55 PM55.4 °F53.6 °F94 %29.53 in10.0 miSSW (200°)5.8 mphOvercast
5:15 PM55.4 °F53.6 °F94 %29.52 in10.0 miSSW (210°)10.4 mphOvercast
5:35 PM55.4 °F53.6 °F94 %29.52 in10.0 miWSW (250°)8.1 mph17.3 mphMostly Cloudy
5:55 PM55.4 °F53.6 °F94 %29.53 in10.0 miSSW (210°)9.2 mphScattered Clouds
6:15 PM55.4 °F53.6 °F94 %29.53 in10.0 miSSW (210°)10.4 mph16.1 mphClear
6:35 PM55.4 °F53.6 °F94 %29.53 in10.0 miSW (220°)6.9 mphClear
6:55 PM55.4 °F53.6 °F94 %29.54 in10.0 miSSW (210°)10.4 mphClear
7:15 PM55.4 °F53.6 °F94 %29.53 in10.0 miSW (220°)8.1 mphClear
7:35 PM55.4 °F53.6 °F94 %29.53 in10.0 miSW (230°)6.9 mphScattered Clouds
7:55 PM55.4 °F53.6 °F94 %29.54 in10.0 miSW (230°)9.2 mphScattered Clouds
8:15 PM55.4 °F53.6 °F94 %29.55 in10.0 miSW (230°)9.2 mphScattered Clouds
8:35 PM55.4 °F53.6 °F94 %29.55 in10.0 miSW (220°)9.2 mph16.1 mphMostly Cloudy
8:55 PM55.4 °F51.8 °F88 %29.56 in10.0 miSW (220°)10.4 mph17.3 mphScattered Clouds
9:15 PM55.4 °F51.8 °F88 %29.56 in10.0 miSW (220°)9.2 mphScattered Clouds
9:35 PM55.4 °F51.8 °F88 %29.58 in10.0 miSW (230°)9.2 mphClear
9:55 PM55.4 °F51.8 °F88 %29.58 in10.0 miWSW (240°)4.6 mphClear
10:15 PM53.6 °F51.8 °F94 %29.58 in10.0 miWSW (240°)5.8 mphClear
10:35 PM53.6 °F50.0 °F88 %29.58 in10.0 miSW (230°)4.6 mphClear
10:55 PM51.8 °F50.0 °F94 %29.59 in10.0 miSW (230°)4.6 mphScattered Clouds
11:15 PM51.8 °F48.2 °F88 %29.59 in10.0 miWSW (240°)5.8 mphScattered Clouds
11:35 PM51.8 °F46.4 °F82 %29.59 in10.0 miWSW (240°)4.6 mphClear
11:55 PM51.8 °F44.6 °F76 %29.60 in10.0 miWSW (240°)3.5 mphScattered Clouds
Hourly data recorded from KFVX, located miles away from Columbia, Virginia







STORIES FROM OUR PARTNERS